This is the latest recevied weather packets stored in our database for station/object KD0OXW. If no packets are shown the sender has not sent any weather packets the latest 10 day(s).
| Time | Temp. | Humidity | Pressure | Rain* | Wind** | Luminosity | Snow |
|---|---|---|---|---|---|---|---|
| 1777321891 | 10.56° C | 96% | 999.5 hPa | 3.05 mm | - | - | - |
| 1777321591 | 10.56° C | 96% | 999.6 hPa | 3.3 mm | - | - | - |
| 1777321291 | 10.56° C | 96% | 999.7 hPa | 3.81 mm | - | - | - |
| 1777320991 | 10.56° C | 96% | 999.8 hPa | 4.06 mm | - | - | - |
| 1777320691 | 10.56° C | 96% | 999.8 hPa | 4.57 mm | - | - | - |
| 1777320391 | 10.56° C | 96% | 999.8 hPa | 4.83 mm | - | - | - |
| 1777320091 | 10.56° C | 96% | 1000.1 hPa | 4.83 mm | - | - | - |
| 1777319792 | 10.56° C | 96% | 1000.2 hPa | 4.57 mm | - | - | - |
| 1777319491 | 10.56° C | 96% | 1000.4 hPa | 4.32 mm | - | - | - |
| 1777319191 | 10.56° C | 96% | 1000.6 hPa | 4.06 mm | - | - | - |
| 1777318891 | 10.56° C | 96% | 1000.7 hPa | 4.06 mm | - | - | - |
| 1777318591 | 10.56° C | 96% | 1000.9 hPa | 3.56 mm | - | - | - |
| 1777318291 | 10.56° C | 96% | 1001 hPa | 3.3 mm | - | - | - |
| 1777317991 | 10.56° C | 96% | 1001.1 hPa | 2.79 mm | - | - | - |
| 1777317691 | 10.56° C | 96% | 1001.1 hPa | 2.03 mm | - | - | - |
| 1777317391 | 10.56° C | 96% | 1001.2 hPa | 1.52 mm | - | - | - |
| 1777317092 | 10.56° C | 96% | 1001.3 hPa | 1.02 mm | - | - | - |
| 1777316792 | 10.56° C | 96% | 1001.2 hPa | 0.51 mm | - | - | - |
| 1777316491 | 10.56° C | 96% | 1001.1 hPa | 0.25 mm | - | - | - |
| 1777316192 | 10.56° C | 96% | 1001.1 hPa | 0 mm | - | - | - |
| 1777315891 | 10.56° C | 96% | 1001.2 hPa | 0 mm | - | - | - |
| 1777315591 | 10.56° C | 96% | 1001.3 hPa | 0 mm | - | - | - |
| 1777315291 | 10.56° C | 96% | 1001.6 hPa | 0 mm | - | - | - |
| 1777314992 | 10.56° C | 96% | 1001.7 hPa | 0 mm | - | - | - |
| 1777314691 | 10.56° C | 96% | 1001.7 hPa | 0 mm | - | - | - |
* Rain latest hour (hover to see other rain measurements)
** Current wind speed in m/s (hover to see current wind gust speed)